Theta_e
310 309 308 312 313 312 311 309 306 301 302 304 305 310 310 312 315 313 311 317 319 318 317 317 314 312 312 311 311 310 310 310 311 312 313 314 314 314
311 311 310 311 311 313 312 308 310 306 302 307 307 311 313 314 315 315 311 316 315 315 316 316 314 313 313 311 310 309 309 309 309 311 312 313 313 313
309 311 312 312 311 311 310 309 310 309 304 306 308 311 310 309 311 308 310 304 307 315 315 314 312 312 312 311 310 309 309 309 309 308 309 310 312 312
312 312 311 314 309 310 310 309 308 308 306 302 306 309 308 303 304 303 306 308 303 312 314 314 312 312 312 311 310 310 310 309 309 308 307 308 309 310
313 310 312 311 309 310 310 310 307 310 307 305 304 306 304 301 300 300 302 301 306 312 313 312 312 312 312 311 309 309 308 307 307 307 307 307 307 309
313 312 311 311 310 310 310 308 308 309 308 305 299 298 300 300 299 297 297 298 300 306 307 309 310 311 311 311 311 311 309 307 306 305 305 305 306 306
311 312 312 313 315 314 312 310 308 304 303 299 296 295 298 296 295 296 295 296 298 299 299 300 301 301 303 307 310 312 310 308 307 306 304 304 303 303
310 311 312 313 314 313 313 312 307 304 304 299 296 295 295 296 296 295 293 293 292 298 298 298 300 300 302 303 307 308 307 307 306 304 303 302 302 302
309 310 312 313 312 312 311 310 310 309 307 300 298 297 298 299 296 293 293 293 293 298 297 295 300 298 301 306 307 306 306 305 304 303 303 302 301 300
310 309 309 309 309 310 309 309 309 309 306 304 300 300 302 301 297 297 296 295 296 296 297 292 296 297 300 300 307 307 305 303 303 303 302 302 300 299
310 310 309 309 308 305 308 308 309 309 311 308 306 303 302 301 299 296 294 292 291 292 296 295 296 296 296 297 305 306 305 304 303 303 302 301 300 300
309 309 307 308 305 303 307 306 306 306 302 302 302 302 302 299 303 297 296 293 292 291 295 294 294 295 292 296 298 300 301 305 303 302 302 301 301 299
308 308 309 305 302 301 301 306 306 304 301 299 299 299 298 300 299 302 298 297 294 292 297 296 294 294 293 292 296 298 298 303 302 304 301 301 301 299
308 309 309 303 301 300 300 301 300 300 296 295 294 294 296 297 299 299 299 302 301 299 301 299 295 294 291 291 291 296 297 298 298 301 302 303 302 300
309 306 301 299 299 299 298 298 298 297 294 293 293 294 297 301 299 297 299 301 300 300 304 300 299 297 295 292 291 292 294 296 298 297 299 300 299 298
307 307 304 302 300 301 300 299 297 296 296 294 294 296 302 298 298 297 295 297 296 296 299 299 300 298 295 295 293 293 296 293 297 297 298 300 298 298
304 303 304 304 301 299 298 298 297 296 297 298 296 299 299 297 296 297 297 296 294 294 294 294 295 296 297 295 292 294 294 297 299 297 296 294 296 298
301 303 304 302 302 302 300 300 297 300 298 297 296 295 294 295 295 295 296 294 293 292 292 292 293 293 294 295 300 293 293 293 295 296 295 293 293 297
300 298 298 298 298 299 298 296 296 296 295 295 294 294 295 295 295 294 294 294 293 292 293 293 292 291 288 289 295 300 293 293 294 293 293 293 293 295
295 297 298 297 298 295 293 292 294 295 294 294 294 294 294 294 293 293 294 292 292 292 292 292 292 291 288 288 289 294 296 293 292 291 292 293 294 298
296 296 296 297 296 294 293 294 294 293 293 293 293 294 293 293 292 292 292 291 291 293 292 291 292 288 292 292 290 291 294 297 297 293 292 291 290 290
299 299 298 296 294 294 294 293 293 292 292 293 293 293 293 291 290 290 290 292 293 294 293 292 292 292 290 291 288 289 290 296 300 300 299 298 294 292
297 295 294 295 294 294 293 294 293 291 291 292 292 291 289 287 288 290 288 292 293 290 289 289 290 290 289 289 288 289 291 295 296 296 298 299 299 299
Wind_Speed
2 3 2 0 2 3 2 4 4 1 3 1 1 3 4 4 5 5 4 8 8 8 6 8 8 9 9 10 12 12 11 12 12 13 14 13 13 9
3 3 3 0 1 2 2 1 2 3 1 1 3 4 4 4 7 6 6 7 7 6 6 9 10 10 9 10 10 10 10 11 11 11 11 11 12 9
3 5 4 2 1 2 1 2 1 1 3 3 3 3 4 6 5 3 2 3 3 7 6 10 10 10 10 10 9 9 9 11 11 11 11 11 10 8
7 5 5 3 2 3 3 4 0 1 3 3 2 4 3 4 3 5 2 2 2 4 11 12 11 12 13 11 10 9 8 10 10 11 12 12 11 10
8 6 5 4 2 2 2 3 2 1 1 1 4 1 0 2 4 3 2 3 3 9 5 7 7 9 10 11 11 10 11 10 10 9 8 9 10 9
7 6 6 5 2 2 4 3 3 2 3 2 1 1 1 1 2 1 3 1 3 3 5 5 9 7 8 13 13 11 11 11 9 9 9 8 8 7
6 5 4 3 4 4 3 2 6 2 2 2 1 1 1 2 0 2 1 3 4 2 2 3 3 3 5 7 7 12 10 6 8 7 8 7 6 5
7 6 5 5 1 5 4 9 8 5 4 3 3 3 2 2 1 1 2 3 3 3 2 5 1 3 3 4 8 7 6 6 6 7 8 8 7 7
9 6 4 3 3 4 3 7 9 9 8 4 5 5 4 4 3 2 1 0 3 5 1 3 2 4 4 4 11 8 6 5 6 8 8 8 8 7
8 7 5 5 5 5 5 5 9 9 7 7 7 8 6 5 5 5 4 3 3 4 1 1 2 3 4 4 7 6 7 6 7 8 8 9 8 8
8 7 6 6 8 9 5 7 8 7 8 14 16 12 9 8 6 3 2 2 3 3 2 2 3 3 3 2 3 8 7 6 8 8 11 12 11 9
6 6 10 9 11 12 8 7 6 5 2 1 1 5 8 6 10 6 4 3 2 3 4 2 2 1 4 3 3 3 3 3 3 8 12 11 9 4
5 5 5 13 12 12 10 6 6 4 3 1 4 5 5 5 5 5 6 5 4 5 5 3 2 2 2 4 3 3 1 3 4 5 10 11 9 8
6 5 5 7 8 11 7 10 10 5 2 3 2 4 3 3 4 5 6 7 6 8 9 6 4 4 3 2 4 3 3 3 2 2 2 4 7 8
3 1 4 8 9 5 10 9 7 4 3 3 5 4 4 5 3 1 4 6 6 5 8 5 6 5 5 4 3 3 2 3 1 2 2 2 1 1
4 4 6 8 7 5 5 5 5 5 5 5 4 3 1 2 3 4 3 2 1 4 6 5 6 5 3 5 4 4 2 2 2 2 2 2 3 2
4 3 4 4 4 4 5 7 5 5 6 5 3 5 3 2 3 2 3 1 2 3 4 2 1 4 4 4 3 3 1 1 2 2 2 2 3 2
3 3 6 4 5 5 6 7 4 7 5 5 3 2 3 3 3 1 1 3 2 3 3 2 3 4 5 4 4 2 1 1 2 3 2 1 3 3
3 3 4 4 5 6 3 4 3 2 5 5 4 4 3 0 4 5 4 3 4 3 3 2 4 3 3 3 4 6 2 2 3 3 1 2 3 4
2 4 4 3 5 3 2 2 4 4 3 3 3 4 5 4 4 4 4 3 3 2 2 1 2 2 2 3 2 4 5 2 2 2 3 2 4 8
4 4 4 4 4 2 3 4 5 3 4 6 5 6 5 5 4 4 3 4 4 1 2 1 2 2 2 1 2 4 5 7 7 4 2 2 3 4
4 3 3 3 3 6 5 4 5 5 5 5 5 5 4 4 3 2 1 2 2 3 1 3 4 3 2 0 2 3 4 4 6 8 10 9 3 2
3 3 5 6 5 5 5 7 8 5 5 5 4 4 4 3 3 2 2 2 2 2 1 2 3 1 2 3 3 3 4 4 2 3 4 7 6 5
Wind_Direction
188 230 257 57 47 43 58 85 118 292 262 298 352 300 272 244 228 214 203 234 239 262 272 208 220 253 278 299 302 311 313 312 307 296 289 283 279 271
197 237 259 192 69 46 90 72 160 130 275 140 259 252 267 291 262 219 199 222 173 181 168 198 220 238 262 282 292 299 302 308 314 316 307 292 278 266
237 230 232 216 308 353 19 303 290 116 156 286 250 293 304 288 305 185 239 130 219 196 214 231 238 248 256 262 271 281 293 298 302 307 307 307 301 270
233 223 224 184 209 286 306 288 137 180 169 272 273 324 350 336 19 54 13 9 33 265 237 244 254 252 252 255 257 263 268 278 283 294 300 298 294 290
219 208 204 200 253 315 288 335 279 329 40 167 283 331 295 13 37 24 22 352 312 315 328 317 290 262 250 260 264 262 259 259 267 278 292 297 293 289
193 195 184 187 188 299 281 282 308 5 257 223 272 295 97 354 89 24 332 305 287 307 329 335 331 322 291 273 259 265 260 249 254 267 279 284 283 282
180 175 182 162 73 356 253 277 259 212 251 254 274 276 266 353 274 266 329 285 302 267 317 300 307 298 304 302 276 272 273 243 242 259 274 275 271 270
186 185 146 161 162 293 285 213 204 199 219 198 220 224 243 236 258 255 248 22 340 301 320 295 269 298 280 260 266 287 263 252 229 258 265 264 264 270
195 159 149 186 209 264 259 251 267 262 230 201 223 222 211 216 195 257 313 358 257 273 148 288 330 307 283 274 267 259 260 247 242 251 256 263 263 262
168 161 174 211 234 249 244 251 257 252 236 229 216 224 214 208 186 179 197 256 293 288 159 270 296 283 302 311 319 294 280 254 250 246 250 254 257 258
154 167 186 221 240 253 269 282 270 244 243 240 234 209 223 185 181 111 317 23 304 281 296 135 283 290 297 306 308 280 272 242 234 244 251 245 240 243
160 180 206 233 240 247 247 245 253 246 216 13 209 262 251 211 185 190 174 210 235 328 265 112 287 300 326 286 294 310 325 222 266 239 248 244 237 238
174 198 219 233 229 244 235 231 242 177 229 213 258 266 273 230 207 190 205 185 213 228 239 142 233 285 235 283 290 285 221 278 264 282 252 252 231 198
191 205 213 230 255 245 224 217 240 214 240 278 278 269 263 210 212 212 206 225 222 218 259 172 215 191 191 276 267 299 303 297 220 262 274 282 268 215
164 171 231 250 261 254 235 233 221 209 213 224 243 252 221 212 200 209 258 254 249 248 245 219 208 231 177 220 231 265 318 311 310 296 297 276 247 265
247 257 246 251 259 254 269 237 217 214 205 221 231 229 247 177 185 200 218 251 195 282 283 281 224 179 225 224 187 260 225 250 290 287 290 316 315 277
204 247 262 261 266 250 240 242 225 206 201 226 224 235 234 207 208 214 208 217 235 272 286 320 338 164 197 217 213 203 243 329 286 280 20 320 309 287
167 219 241 241 256 265 243 252 219 210 194 191 212 195 183 194 200 247 6 34 50 2 14 357 0 23 357 348 84 109 42 329 307 327 347 73 303 291
216 232 236 239 260 276 183 141 151 138 126 129 153 192 194 236 52 83 67 58 40 21 27 10 48 70 49 358 304 10 135 285 321 328 299 233 231 272
243 239 250 264 283 207 129 106 109 129 128 144 88 59 61 86 76 67 65 60 47 353 343 348 73 88 137 216 256 274 270 226 216 261 286 296 262 277
226 241 241 257 235 139 88 76 96 82 70 79 77 80 70 77 70 58 45 17 350 320 293 351 277 277 257 295 359 314 302 289 211 205 243 319 309 335
276 270 211 226 55 81 86 79 71 76 82 90 89 85 88 91 90 75 349 337 340 303 44 344 326 344 8 7 261 269 291 288 284 250 204 188 187 289
226 71 49 75 71 77 67 68 80 73 72 91 97 97 83 70 52 31 348 280 276 52 30 319 310 309 237 214 227 264 275 292 294 318 6 15 235 355